Flag for Portugal Weather past 2 weeks in Funchal, Madeira, Portugal

Now
70 °F

Passing clouds.


Feels Like: 70 °F
Forecast: 67 / 76 °F
Wind: 15 mph from North

Location: Aeroporto Da Madeira

Current Time: May 30, 2015 at 5:53:12 PM

Latest Report: May 30, 2015 at 5:00 PM


Visibility: N/A

Pressure: 30.18 "Hg

Humidity: 64%

Dew point: 57 °F

Location of FunchalLocation

Historic Weather in Funchal — Graph

°F

Funchal temperature yesterday

Maximum temperature yesterday: 72 °F (at 12:00 PM)
Minimum temperature yesterday: 63 °F (at 2:00 AM)
Average temperature yesterday: 67 °F

Past Weeks' High & Low Weather Summary

 TemperatureHumidityPressure
High79 °F (May 16, 4:30 PM)83% (May 19, 6:00 AM)30.33 "Hg (May 19, 6:00 AM)
Low61 °F (May 20, 7:30 AM)34% (May 16, 4:30 PM)30.04 "Hg (May 28, 4:00 AM)
Average66 °F66%30.17 "Hg
* Reported May 15 4:00 PM — May 30 4:30 PM, Funchal, Weather by CustomWeather, © 2015

Note: Actual official high and low records may vary slightly from our data, if they occured in-between our weather recording intervals... More about our weather records

Advertising

Funchal weather history for previous 24 hours

 ConditionsComfort  
Time TempWeatherWind HumidityBarometerVisibility
4:30 PM
Sat, May 30
73 °FPassing clouds.17 mph57%30.18 "HgN/A
4:00 PM72 °FPassing clouds.20 mph61%30.18 "HgN/A
3:30 PM72 °FPassing clouds.20 mph61%30.18 "HgN/A
3:00 PM72 °FPassing clouds.13 mph61%30.18 "HgN/A
2:30 PM70 °FPassing clouds.9 mph64%30.18 "HgN/A
2:00 PM70 °FPassing clouds.8 mph64%30.18 "HgN/A
1:30 PM70 °FPassing clouds.7 mph64%30.18 "HgN/A
1:00 PM70 °FPassing clouds.6 mph64%30.18 "HgN/A
12:30 PM70 °FPassing clouds.6 mph64%30.18 "HgN/A
12:00 PM70 °FPassing clouds.10 mph69%30.18 "HgN/A
11:30 AM70 °FPassing clouds.6 mph64%30.18 "HgN/A
11:00 AM68 °FPassing clouds.16 mph69%30.15 "HgN/A
10:30 AM68 °FPassing clouds.16 mph69%30.15 "HgN/A
10:00 AM68 °FPassing clouds.6 mph69%30.15 "HgN/A
9:30 AM66 °FPassing clouds.5 mph68%30.15 "HgN/A
9:00 AM66 °FPassing clouds.3 mph68%30.15 "HgN/A
8:30 AM64 °FPassing clouds.3 mph73%30.15 "HgN/A
8:00 AM63 °FPassing clouds.5 mph77%30.12 "HgN/A
7:30 AM61 °FPassing clouds.9 mph83%30.12 "HgN/A
7:00 AM61 °FPassing clouds.7 mph77%30.12 "HgN/A
6:30 AM61 °FPassing clouds.2 mph77%30.12 "HgN/A
6:00 AM61 °FPassing clouds.6 mph83%30.12 "HgN/A
5:30 AM63 °FPassing clouds.12 mph73%30.12 "HgN/A
5:00 AM63 °FPassing clouds.5 mph73%30.12 "HgN/A
4:30 AM63 °FPassing clouds.2 mph73%30.12 "HgN/A
4:00 AM63 °FPassing clouds.3 mph73%30.12 "HgN/A
3:30 AM63 °FPassing clouds.7 mph73%30.12 "HgN/A
3:00 AM63 °FPassing clouds.9 mph73%30.12 "HgN/A
2:30 AM64 °FPassing clouds.12 mph73%30.15 "HgN/A
2:00 AM64 °FPassing clouds.12 mph73%30.15 "HgN/A
1:30 AM64 °FPassing clouds.8 mph73%30.15 "HgN/A
1:00 AM66 °FPassing clouds.5 mph68%30.18 "HgN/A
12:30 AM66 °FPassing clouds.6 mph73%30.18 "HgN/A
12:00 AM66 °FPassing clouds.6 mph68%30.15 "HgN/A
11:30 PM
Fri, May 29
66 °FPassing clouds.6 mph73%30.15 "HgN/A
11:00 PM66 °FScattered clouds.6 mph73%30.15 "HgN/A
10:30 PM66 °FScattered clouds.5 mph78%30.15 "HgN/A
9:30 PM66 °FScattered clouds.5 mph73%30.15 "HgN/A
9:00 PM66 °FScattered clouds.5 mph73%30.12 "HgN/A
8:30 PM66 °FScattered clouds.3 mph73%30.12 "HgN/A
8:00 PM68 °FScattered clouds.3 mph69%30.12 "HgN/A
7:30 PM68 °FPassing clouds.6 mph69%30.12 "HgN/A
7:00 PM68 °FPassing clouds.6 mph69%30.12 "HgN/A
6:30 PM68 °FPassing clouds.5 mph69%30.12 "HgN/A
6:00 PM70 °FScattered clouds.5 mph64%30.12 "HgN/A
5:30 PM68 °FScattered clouds.6 mph69%30.12 "HgN/A
5:00 PM70 °FScattered clouds.6 mph64%30.12 "HgN/A
Weather by CustomWeather, © 2015

See weather overviewHow to use our weather pages